When you browse on this site, cookies collect data to enhance your experience and personalize the content and advertising you see.
Visit our Privacy Policy to learn more. By continuing to use the site, you agree to this use of cookies and data.
  • în România
  • Lista ţărilor
  • Pe 7 zile
  • Temperatura apei
  • Meteo pe hartă
  • Widget-uri
  • user-avatar
    Intrare

    Meteo pe oră la Bocşa

    Astăzi, 26 Mai, Marţi

    Timp Temperatura Precipitaţii Vânt Presiune Umiditate
    00:00 +8°C° 0 mm 1 m/s 747 mmHg 92%
    01:00 +8°C° 0 mm 1 m/s 747 mmHg 93%
    02:00 +7°C° 0 mm 0 m/s 747 mmHg 94%
    03:00 +7°C° 0 mm 0 m/s 747 mmHg 94%
    04:00 +7°C° 0 mm 0 m/s 747 mmHg 95%
    05:00 +9°C° 0.1 mm 1 m/s 747 mmHg 94%
    06:00 +10°C° 0.1 mm 1 m/s 747 mmHg 92%
    07:00 +11°C° 0.1 mm 1 m/s 748 mmHg 91%
    08:00 +12°C° 0.2 mm 2 m/s 748 mmHg 87%
    09:00 +13°C° 0.2 mm 2 m/s 748 mmHg 83%
    10:00 +14°C° 0.2 mm 3 m/s 748 mmHg 79%
    11:00 +14°C° 0.9 mm 3 m/s 747 mmHg 77%
    12:00 +16°C° 0.9 mm 3 m/s 747 mmHg 75%
    13:00 +17°C° 0.9 mm 3 m/s 747 mmHg 73%
    14:00 +17°C° 0.9 mm 4 m/s 746 mmHg 74%
    15:00 +17°C° 0.9 mm 4 m/s 746 mmHg 74%
    16:00 +17°C° 0.9 mm 4 m/s 746 mmHg 75%
    17:00 +16°C° 0.5 mm 3 m/s 746 mmHg 79%
    18:00 +13°C° 0.5 mm 3 m/s 746 mmHg 83%
    19:00 +12°C° 0.5 mm 3 m/s 746 mmHg 87%
    20:00 +11°C° 0 mm 3 m/s 746 mmHg 89%
    21:00 +10°C° 0 mm 2 m/s 746 mmHg 90%
    22:00 +9°C° 0 mm 2 m/s 747 mmHg 92%
    23:00 +9°C° 0 mm 2 m/s 747 mmHg 92%

    Mâine, 27 Mai, Miercuri

    Timp Temperatura Precipitaţii Vânt Presiune Umiditate
    00:00 +9°C° 0 mm 1 m/s 747 mmHg 92%
    01:00 +9°C° 0 mm 1 m/s 747 mmHg 93%
    02:00 +8°C° 0 mm 1 m/s 747 mmHg 93%
    03:00 +8°C° 0 mm 1 m/s 747 mmHg 93%
    04:00 +8°C° 0 mm 1 m/s 747 mmHg 94%
    05:00 +9°C° 0 mm 1 m/s 747 mmHg 91%
    06:00 +11°C° 0 mm 1 m/s 747 mmHg 89%
    07:00 +12°C° 0 mm 1 m/s 748 mmHg 86%
    08:00 +14°C° 0 mm 2 m/s 748 mmHg 81%
    09:00 +15°C° 0 mm 2 m/s 748 mmHg 76%
    10:00 +16°C° 0 mm 3 m/s 748 mmHg 71%
    11:00 +17°C° 0.3 mm 3 m/s 748 mmHg 71%
    12:00 +18°C° 0.3 mm 4 m/s 747 mmHg 71%
    13:00 +18°C° 0.3 mm 4 m/s 747 mmHg 71%
    14:00 +18°C° 0.7 mm 4 m/s 747 mmHg 74%
    15:00 +18°C° 0.7 mm 4 m/s 747 mmHg 76%
    16:00 +17°C° 0.7 mm 4 m/s 746 mmHg 79%
    17:00 +15°C° 0.2 mm 4 m/s 746 mmHg 82%
    18:00 +14°C° 0.2 mm 4 m/s 746 mmHg 85%
    19:00 +13°C° 0.2 mm 3 m/s 746 mmHg 88%
    20:00 +12°C° 0 mm 3 m/s 747 mmHg 90%
    21:00 +12°C° 0 mm 2 m/s 747 mmHg 92%
    22:00 +12°C° 0 mm 2 m/s 747 mmHg 93%
    23:00 +10°C° 0 mm 2 m/s 747 mmHg 94%

    Poimâine, 28 Mai, Joi

    Timp Temperatura Precipitaţii Vânt Presiune Umiditate
    00:00 +11°C° 0 mm 1 m/s 746 mmHg 94%
    01:00 +10°C° 0 mm 1 m/s 746 mmHg 94%
    02:00 +10°C° 0 mm 1 m/s 746 mmHg 94%
    03:00 +9°C° 0 mm 1 m/s 746 mmHg 95%
    04:00 +9°C° 0 mm 1 m/s 746 mmHg 95%
    05:00 +10°C° 0 mm 1 m/s 746 mmHg 92%
    06:00 +12°C° 0 mm 1 m/s 746 mmHg 89%
    07:00 +14°C° 0 mm 1 m/s 746 mmHg 86%
    08:00 +15°C° 0.3 mm 2 m/s 746 mmHg 81%
    09:00 +17°C° 0.3 mm 3 m/s 746 mmHg 76%
    10:00 +18°C° 0.3 mm 4 m/s 746 mmHg 71%
    11:00 +19°C° 0.6 mm 4 m/s 745 mmHg 69%
    12:00 +19°C° 0.6 mm 4 m/s 745 mmHg 67%
    13:00 +20°C° 0.6 mm 4 m/s 744 mmHg 64%
    14:00 +20°C° 0.3 mm 4 m/s 744 mmHg 65%
    15:00 +20°C° 0.3 mm 4 m/s 744 mmHg 66%
    16:00 +19°C° 0.3 mm 4 m/s 744 mmHg 67%
    17:00 +18°C° 0.3 mm 3 m/s 744 mmHg 73%
    18:00 +16°C° 0.3 mm 3 m/s 744 mmHg 79%
    19:00 +14°C° 0.3 mm 2 m/s 744 mmHg 85%
    20:00 +14°C° 0.2 mm 2 m/s 744 mmHg 87%
    21:00 +13°C° 0.2 mm 2 m/s 744 mmHg 89%
    22:00 +12°C° 0.2 mm 2 m/s 744 mmHg 91%
    23:00 +12°C° 0 mm 2 m/s 744 mmHg 91%

    29 Mai, Vineri

    Timp Temperatura Precipitaţii Vânt Presiune Umiditate
    00:00 +12°C° 0 mm 1 m/s 744 mmHg 91%
    01:00 +11°C° 0 mm 1 m/s 744 mmHg 92%
    02:00 +11°C° 0.1 mm 1 m/s 744 mmHg 92%
    03:00 +11°C° 0.1 mm 1 m/s 744 mmHg 93%
    04:00 +11°C° 0.1 mm 1 m/s 744 mmHg 94%
    05:00 +11°C° 0.2 mm 1 m/s 744 mmHg 94%
    06:00 +12°C° 0.2 mm 2 m/s 744 mmHg 94%
    07:00 +12°C° 0.2 mm 2 m/s 744 mmHg 94%
    08:00 +12°C° 0.3 mm 2 m/s 744 mmHg 94%
    09:00 +12°C° 0.3 mm 2 m/s 744 mmHg 93%
    10:00 +12°C° 0.3 mm 2 m/s 744 mmHg 93%
    11:00 +13°C° 0.1 mm 2 m/s 744 mmHg 88%
    12:00 +14°C° 0.1 mm 2 m/s 744 mmHg 83%
    13:00 +15°C° 0.1 mm 1 m/s 744 mmHg 78%
    14:00 +16°C° 0.3 mm 1 m/s 743 mmHg 76%
    15:00 +16°C° 0.3 mm 2 m/s 743 mmHg 74%
    16:00 +17°C° 0.3 mm 2 m/s 743 mmHg 72%
    17:00 +15°C° 0.3 mm 1 m/s 743 mmHg 77%
    18:00 +14°C° 0.3 mm 1 m/s 743 mmHg 82%
    19:00 +13°C° 0.3 mm 1 m/s 743 mmHg 87%
    20:00 +12°C° 0 mm 1 m/s 743 mmHg 89%
    21:00 +11°C° 0 mm 1 m/s 743 mmHg 90%
    22:00 +11°C° 0 mm 1 m/s 743 mmHg 92%
    23:00 +10°C° 0 mm 1 m/s 743 mmHg 93%

    30 Mai, Sâmbătă

    Timp Temperatura Precipitaţii Vânt Presiune Umiditate
    00:00 +10°C° 0 mm 1 m/s 743 mmHg 94%
    01:00 +10°C° 0 mm 1 m/s 743 mmHg 95%
    02:00 +9°C° 0 mm 1 m/s 743 mmHg 95%
    03:00 +9°C° 0 mm 1 m/s 743 mmHg 95%
    04:00 +8°C° 0 mm 1 m/s 743 mmHg 96%
    05:00 +9°C° 0 mm 1 m/s 743 mmHg 93%
    06:00 +9°C° 0 mm 2 m/s 743 mmHg 91%
    07:00 +10°C° 0 mm 2 m/s 743 mmHg 88%
    08:00 +13°C° 0 mm 2 m/s 743 mmHg 84%
    09:00 +13°C° 0 mm 3 m/s 744 mmHg 80%
    10:00 +14°C° 0 mm 3 m/s 744 mmHg 77%
    11:00 +14°C° 0.6 mm 3 m/s 744 mmHg 77%
    12:00 +15°C° 0.6 mm 4 m/s 744 mmHg 77%
    13:00 +15°C° 0.6 mm 4 m/s 743 mmHg 78%
    14:00 +15°C° 0.8 mm 4 m/s 743 mmHg 78%
    15:00 +15°C° 0.7 mm 4 m/s 743 mmHg 79%
    16:00 +15°C° 0.7 mm 4 m/s 743 mmHg 80%
    17:00 +14°C° 0.2 mm 3 m/s 743 mmHg 83%
    18:00 +13°C° 0.2 mm 2 m/s 743 mmHg 87%
    19:00 +12°C° 0.2 mm 1 m/s 743 mmHg 90%
    20:00 +12°C° 0 mm 1 m/s 743 mmHg 91%
    21:00 +11°C° 0 mm 1 m/s 743 mmHg 92%
    22:00 +10°C° 0 mm 1 m/s 743 mmHg 92%
    23:00 +10°C° 0 mm 1 m/s 743 mmHg 92%

    31 Mai, Duminică

    Timp Temperatura Precipitaţii Vânt Presiune Umiditate
    00:00 +10°C° 0 mm 1 m/s 743 mmHg 93%
    01:00 +11°C° 0 mm 1 m/s 743 mmHg 93%
    02:00 +11°C° 0.2 mm 1 m/s 743 mmHg 93%
    03:00 +11°C° 0.2 mm 1 m/s 743 mmHg 94%
    04:00 +11°C° 0.2 mm 1 m/s 743 mmHg 94%
    05:00 +11°C° 0.2 mm 1 m/s 744 mmHg 93%
    06:00 +11°C° 0.2 mm 1 m/s 744 mmHg 93%
    07:00 +11°C° 0.2 mm 1 m/s 744 mmHg 92%
    08:00 +12°C° 0.1 mm 1 m/s 744 mmHg 89%
    09:00 +13°C° 0.1 mm 1 m/s 744 mmHg 87%
    10:00 +13°C° 0.1 mm 1 m/s 744 mmHg 84%
    11:00 +14°C° 0.1 mm 2 m/s 744 mmHg 81%
    12:00 +15°C° 0.1 mm 2 m/s 744 mmHg 78%
    13:00 +16°C° 0.1 mm 2 m/s 744 mmHg 75%
    14:00 +16°C° 0.1 mm 2 m/s 744 mmHg 73%
    15:00 +17°C° 0.1 mm 2 m/s 744 mmHg 71%
    16:00 +17°C° 0.1 mm 2 m/s 744 mmHg 69%
    17:00 +16°C° 0 mm 2 m/s 744 mmHg 75%
    18:00 +15°C° 0 mm 1 m/s 744 mmHg 80%
    19:00 +13°C° 0 mm 1 m/s 744 mmHg 86%
    20:00 +13°C° 0 mm 1 m/s 744 mmHg 87%
    21:00 +12°C° 0 mm 1 m/s 744 mmHg 87%
    22:00 +11°C° 0 mm 1 m/s 744 mmHg 88%
    23:00 +11°C° 0 mm 1 m/s 744 mmHg 88%
    Arată mai mult